EWG48FD EDDK-LDZA

Flight info

Callsign EWG48FD
Flight time N/A
Altitude 37000
Route KUMIK1B KUMIK L603 TESGA DCT ESATI DCT OSBIT DCT TENLO DCT LAMSI DCT LULUD
Aircraft A320/M-SDE3FGHIRWY/LB1

Departure

Time 2026-04-26 18:30
Airport Cologne Bonn Airport (EDDK)

Arrival

Time N/A
Airport Zagreb Franjo Tuđman International Airport (LDZA)
Time Latitude Longitude Altitude Speed Heading
2026-04-26 17:51 50.87876 7.12450 234 ft 0 kts 288°
2026-04-26 18:12 50.87869 7.12482 232 ft 4 kts 288°
2026-04-26 18:13 50.87861 7.12523 234 ft 4 kts 288°
2026-04-26 18:13 50.87853 7.12563 232 ft 4 kts 289°
2026-04-26 18:13 50.87847 7.12591 232 ft 4 kts
2026-04-26 18:13 50.87840 7.12588 236 ft 4 kts 18°
2026-04-26 18:14 50.87806 7.12571 235 ft 4 kts 18°
2026-04-26 18:14 50.87784 7.12559 235 ft 1 kts 18°
2026-04-26 18:14 50.87783 7.12559 235 ft 0 kts 18°
2026-04-26 18:18 50.87784 7.12559 235 ft 1 kts 18°
2026-04-26 18:18 50.87810 7.12595 236 ft 6 kts 59°
2026-04-26 18:18 50.87793 7.12665 233 ft 9 kts 135°
2026-04-26 18:18 50.87735 7.12748 232 ft 17 kts 138°
2026-04-26 18:19 50.87647 7.12874 232 ft 16 kts 137°
2026-04-26 18:19 50.87570 7.12986 232 ft 14 kts 137°
2026-04-26 18:19 50.87501 7.13085 232 ft 13 kts 137°
2026-04-26 18:19 50.87439 7.13174 232 ft 13 kts 137°
2026-04-26 18:20 50.87342 7.13315 232 ft 20 kts 138°
2026-04-26 18:20 50.87244 7.13456 234 ft 17 kts 137°
2026-04-26 18:20 50.87166 7.13568 237 ft 13 kts 137°
2026-04-26 18:20 50.87145 7.13600 238 ft 12 kts 137°
2026-04-26 18:21 50.87064 7.13718 241 ft 11 kts 136°
2026-04-26 18:21 50.87013 7.13795 243 ft 9 kts 136°
2026-04-26 18:21 50.86957 7.13875 247 ft 11 kts 138°
2026-04-26 18:21 50.86902 7.13954 252 ft 8 kts 138°
2026-04-26 18:22 50.86852 7.14026 255 ft 9 kts 137°
2026-04-26 18:22 50.86809 7.14090 255 ft 8 kts 137°
2026-04-26 18:22 50.86801 7.14100 255 ft 4 kts 138°
2026-04-26 18:22 50.86748 7.14136 255 ft 9 kts 163°
2026-04-26 18:23 50.86695 7.14189 258 ft 13 kts 138°
2026-04-26 18:23 50.86638 7.14276 261 ft 11 kts 135°
2026-04-26 18:23 50.86580 7.14353 261 ft 10 kts 140°
2026-04-26 18:23 50.86524 7.14439 264 ft 15 kts 135°
2026-04-26 18:24 50.86449 7.14549 269 ft 16 kts 137°
2026-04-26 18:24 50.86367 7.14668 274 ft 18 kts 137°
2026-04-26 18:24 50.86272 7.14806 279 ft 17 kts 138°
2026-04-26 18:24 50.86170 7.14953 285 ft 22 kts 137°
2026-04-26 18:25 50.86062 7.15110 289 ft 20 kts 137°
2026-04-26 18:25 50.85968 7.15245 296 ft 16 kts 137°
2026-04-26 18:25 50.85893 7.15354 296 ft 15 kts 137°
2026-04-26 18:25 50.85791 7.15502 300 ft 22 kts 137°
2026-04-26 18:26 50.85681 7.15661 302 ft 21 kts 137°
2026-04-26 18:26 50.85580 7.15813 305 ft 19 kts 136°
2026-04-26 18:26 50.85494 7.15941 308 ft 15 kts 137°
2026-04-26 18:26 50.85415 7.16057 308 ft 15 kts 137°
2026-04-26 18:27 50.85344 7.16193 308 ft 19 kts 112°
2026-04-26 18:27 50.85360 7.16401 308 ft 20 kts 60°
2026-04-26 18:27 50.85419 7.16483 307 ft 6 kts 28°
2026-04-26 18:27 50.85437 7.16496 308 ft 8 kts 22°
2026-04-26 18:28 50.85527 7.16523 307 ft 15 kts 353°
2026-04-26 18:28 50.85597 7.16458 309 ft 2 kts 317°
2026-04-26 18:28 50.85597 7.16457 309 ft 0 kts 317°
2026-04-26 18:29 50.85602 7.16450 309 ft 12 kts 316°
2026-04-26 18:29 50.85865 7.16070 303 ft 86 kts 317°
2026-04-26 18:29 50.86458 7.15212 282 ft 142 kts 317°
2026-04-26 18:30 50.87577 7.13597 671 ft 170 kts 319°
2026-04-26 18:30 50.88452 7.12334 1375 ft 171 kts 321°
2026-04-26 18:30 50.89138 7.11637 1716 ft 180 kts 344°
2026-04-26 18:30 50.90411 7.11772 2093 ft 195 kts 22°
2026-04-26 18:31 50.91720 7.12625 2473 ft 212 kts 23°
2026-04-26 18:31 50.93069 7.13640 3182 ft 218 kts 37°
2026-04-26 18:31 50.94050 7.15498 3736 ft 234 kts 62°
2026-04-26 18:31 50.94827 7.17944 4168 ft 257 kts 63°
2026-04-26 18:32 50.95635 7.20538 4820 ft 267 kts 62°
2026-04-26 18:32 50.96465 7.23206 5587 ft 271 kts 62°
2026-04-26 18:32 50.97306 7.25901 6458 ft 274 kts 61°
2026-04-26 18:32 50.98162 7.28632 7261 ft 278 kts 60°
2026-04-26 18:33 50.99019 7.31357 8080 ft 281 kts 60°
2026-04-26 18:33 50.99899 7.34155 8859 ft 285 kts 60°
2026-04-26 18:33 51.00804 7.37031 9687 ft 289 kts 60°
2026-04-26 18:33 51.01498 7.40020 10428 ft 298 kts 75°
2026-04-26 18:34 51.01674 7.43343 11026 ft 312 kts 91°
2026-04-26 18:34 51.01227 7.46882 11226 ft 338 kts 106°
2026-04-26 18:34 51.00493 7.50534 11461 ft 358 kts 106°
2026-04-26 18:34 50.99729 7.54341 12037 ft 365 kts 106°
2026-04-26 18:35 50.98957 7.58210 12703 ft 369 kts 106°
2026-04-26 18:35 50.98171 7.62173 13393 ft 373 kts 106°
2026-04-26 18:35 50.97392 7.66119 14009 ft 377 kts 106°
2026-04-26 18:35 50.96607 7.70096 14218 ft 378 kts 106°
2026-04-26 18:36 50.95831 7.74020 14261 ft 378 kts 106°
2026-04-26 18:36 50.95046 7.77992 14271 ft 377 kts 106°
2026-04-26 18:36 50.94109 7.81899 14613 ft 382 kts 115°
2026-04-26 18:36 50.92762 7.85542 15252 ft 385 kts 123°
2026-04-26 18:37 50.91288 7.89098 15861 ft 388 kts 123°
2026-04-26 18:37 50.89798 7.92675 16453 ft 391 kts 123°
2026-04-26 18:37 50.88294 7.96279 17030 ft 394 kts 123°
2026-04-26 18:37 50.86776 7.99909 17618 ft 397 kts 123°
2026-04-26 18:38 50.85241 8.03569 18142 ft 402 kts 124°
2026-04-26 18:38 50.83682 8.07276 18662 ft 406 kts 124°
2026-04-26 18:38 50.82113 8.11003 19131 ft 409 kts 124°
2026-04-26 18:38 50.80527 8.14764 19605 ft 412 kts 124°
2026-04-26 18:39 50.78931 8.18549 20070 ft 415 kts 123°
2026-04-26 18:39 50.77325 8.22359 20529 ft 419 kts 123°
2026-04-26 18:39 50.75699 8.26203 20992 ft 422 kts 123°
2026-04-26 18:39 50.74062 8.30060 21450 ft 425 kts 123°
2026-04-26 18:40 50.72411 8.33943 21892 ft 428 kts 123°
2026-04-26 18:40 50.70636 8.37721 22322 ft 431 kts 131°
2026-04-26 18:40 50.68488 8.41028 22751 ft 433 kts 141°
2026-04-26 18:40 50.66010 8.43749 23186 ft 435 kts 151°
2026-04-26 18:41 50.63338 8.46015 23632 ft 438 kts 153°
2026-04-26 18:41 50.60644 8.48284 24016 ft 441 kts 153°
2026-04-26 18:41 50.57937 8.50569 24362 ft 443 kts 153°
2026-04-26 18:41 50.55211 8.52871 24704 ft 446 kts 153°
2026-04-26 18:42 50.52472 8.55181 25050 ft 448 kts 153°
2026-04-26 18:42 50.49714 8.57504 25389 ft 450 kts 153°
2026-04-26 18:42 50.46932 8.59845 25718 ft 453 kts 152°
2026-04-26 18:42 50.44290 8.62506 26028 ft 456 kts 143°
2026-04-26 18:43 50.41890 8.65787 26347 ft 458 kts 136°
2026-04-26 18:43 50.39590 8.69269 26659 ft 461 kts 136°
2026-04-26 18:43 50.37252 8.72812 26976 ft 463 kts 135°
2026-04-26 18:43 50.34926 8.76332 27295 ft 466 kts 136°
2026-04-26 18:44 50.32584 8.79857 27609 ft 468 kts 136°
2026-04-26 18:44 50.30228 8.83389 27922 ft 470 kts 135°
2026-04-26 18:44 50.27890 8.86888 28227 ft 472 kts 135°
2026-04-26 18:44 50.25514 8.90438 28519 ft 474 kts 135°
2026-04-26 18:45 50.23123 8.94008 28796 ft 476 kts 135°
2026-04-26 18:45 50.20719 8.97593 29072 ft 479 kts 135°
2026-04-26 18:45 50.18309 9.01184 29350 ft 481 kts 135°
2026-04-26 18:45 50.15882 9.04792 29605 ft 483 kts 135°
2026-04-26 18:46 50.13444 9.08416 29880 ft 485 kts 135°
2026-04-26 18:46 50.11129 9.12244 30132 ft 486 kts 127°
2026-04-26 18:46 50.09222 9.16581 30393 ft 485 kts 117°
2026-04-26 18:46 50.07808 9.21316 30743 ft 480 kts 108°
2026-04-26 18:47 50.06903 9.26284 31080 ft 476 kts 98°
2026-04-26 18:47 50.06513 9.31369 31390 ft 472 kts 89°
2026-04-26 18:47 50.06549 9.36464 31683 ft 470 kts 85°
2026-04-26 18:47 50.06624 9.41543 31984 ft 469 kts 85°
2026-04-26 18:48 50.06686 9.46620 32287 ft 469 kts 86°
2026-04-26 18:48 50.06742 9.51691 32585 ft 469 kts 86°
2026-04-26 18:48 50.06790 9.56772 32900 ft 469 kts 86°
2026-04-26 18:48 50.06834 9.61836 33201 ft 468 kts 86°
2026-04-26 18:49 50.06883 9.66904 33492 ft 468 kts 86°
2026-04-26 18:49 50.06796 9.71974 33769 ft 471 kts 94°
2026-04-26 18:49 50.06222 9.76998 34059 ft 473 kts 103°
2026-04-26 18:49 50.05149 9.81839 34340 ft 474 kts 113°
2026-04-26 18:50 50.03602 9.86363 34585 ft 475 kts 122°
2026-04-26 18:50 50.01777 9.90650 34824 ft 475 kts 123°
2026-04-26 18:50 49.99955 9.94936 35063 ft 475 kts 123°
2026-04-26 18:50 49.98140 9.99222 35299 ft 475 kts 123°
2026-04-26 18:51 49.96329 10.03502 35556 ft 474 kts 123°
2026-04-26 18:51 49.94519 10.07773 35817 ft 473 kts 123°
2026-04-26 18:51 49.92708 10.12036 36059 ft 472 kts 123°
2026-04-26 18:51 49.90899 10.16288 36289 ft 472 kts 123°
2026-04-26 18:52 49.89088 10.20536 36483 ft 472 kts 123°
2026-04-26 18:52 49.87274 10.24777 36704 ft 472 kts 123°